SL-14 DEB, 45308

Orbit data source: Space-Track

SL-14 DEB, 45308 is space debris in LEO originally from a launch on Thu, 15 Aug 1991 UTC launched from the Plesetsk Missile And Space Complex (PKMTR). Debris objects in space refer to the collection of defunct objects orbiting the Earth. Examples of debris include non-operational satellites, rocket bodies, and fragments generated from explosions, collisions, or faulty payload assembly.

Loading next visibility...
Identifier
45308, 1991-056AW
Orbit
LEO
Country
Flag of CISCIS
Related business
Manufacturer
Unknown
Mission
Spacecraft
Bus & Motor
Unknown
Mass
Unknown
Launch date (UTC)
1991-08-15 (35 years ago)
Launch vehicle
Unknown
Launch site
Plesetsk Missile And Space Complex (PKMTR)
Object type
Payload
Rocket body
Debris
Shape & HBR
Unknown shape, 0.1 m
Radar Cross Section
Small (<0.1 m²)

Expand to show TLE details & history
Last TLE update: 3 days ago

TLE from 3 days ago
0 SL-14 DEB
1 45308U 91056AW  26165.63657844  .00000433  00000-0  99763-3 0  9991
2 45308  82.5752 131.8930 0033214  51.4607 308.9488 13.23013621304023
Epoch: 2026-06-14T15:16Z
TLE epoch observation values (Epoch: 2026-06-14T15:16:40.377Z)
Latitude
0.00003°
Longitude
-0.2097°
Altitude
1,160.328 km
Speed
7.281 km/s
True Right ascension
08h 47m 34s
True Declination
0° 00' 00"
Sunlit
Object was in daylight at epoch
Visualization orbit readout
Latitude
Unknown
Longitude
Unknown
Altitude
Unknown
Speed
Unknown
Apparent Right ascension
Unknown
Apparent Declination
Unknown
Sunlit
N/A
Visualization observer readout
Local Sidereal Time
20:07:17
Azimuth
Unknown
Elevation
Unknown
Doppler factor
Unknown
Orbital elements
Apogee altitude
1,195.538 km
Perigee altitude
1,145.394 km
Semi-major axis
7,548.603 km
Eccentricity
0.00332
Inclination
82.5752°
RAAN
131.893°
Arg. of periapsis
51.4607°
True anomaly
308.65203°
Mean anomaly
308.9488°
Eccentric anomaly
308.80049°
Mean motion
3.30935 °/min
Orbital period
108.78 mins
BSTAR
0.00099763
Loading maneuver chart data...
Computing Atmospheric mass density...
Loading historical data...
Loading historical data...
Loading historical data...
Loading historical data...
Loading historical data...
Loading historical data...
Loading historical data...

Documentation

Showing up to 5 results
|